User: anonymous
Location: Cherry Springs State Park
(41.6616°N, 77.8240°W)
Time: 14:23:09
(UTC-04:00)
Language:

Cosmos 1437 - Orbit

View from above orbital plane
View from above orbital plane
View from above satellite
View from above satellite

Ground track
Ground track

The orbit data is extracted from the following two-line orbital elements,

1 13770U 83003A   14293.84906532  .00016339  00000-0  51072-3 0  6849
2 13770 081.1648 246.2982 0012081 055.2392 004.5108 15.32969645736812
Epoch (UTC): 20 October 2014 20:22:39
Eccentricity: 0.0012081
inclination: 81.1648°
perigee height: 458 km
apogee height: 475 km
right ascension of ascending node: 246.2982°
argument of perigee: 55.2392°
revolutions per day: 15.32969645
mean anomaly at epoch: 4.5108°
orbit number at epoch: 73681

The dashed part of the orbit path shows where the satellite is in the earth's shadow,  

DLR